Regional Weather Roundup
Issued by NWS Kansas City/Pleasant Hill, MO

Home | Current Version | Previous Version | Text Only | Print | Product List | Glossary On
Versions: 1 2 3 4 5 6 7 8 9 10 11 12 13 14 15 16 17 18 19 20 21 22 23 24 25 26 27 28 29 30 31 32 33 34 35 36 37 38 39 40 41 42 43 44 45 46 47 48 49 50
000
ASUS43 KEAX 271811
RWREAX

WEATHER ROUNDUP FOR EASTERN KANSAS AND NORTHWEST MISSOURI
NATIONAL WEATHER SERVICE KANSAS CITY/PLEASANT HILL MO
100 PM CDT WED MAY 27 2015

KSZ040-057-103>105-MOZ028-029-037-043-271900-
...KANSAS CITY METROPOLITAN AREA...

CITY           SKY/WX    TMP DP  RH WIND       PRES   REMARKS
K.C. INTL      PTSUNNY   79  54  41 E5        30.10F
6HR MIN TEMP:  57; 6HR MAX TEMP:  79;

K.C. DOWNTOWN  FAIR      80  53  39 CALM      30.09S
6HR MIN TEMP:  63; 6HR MAX TEMP:  81;

LEES SUMMIT    FAIR      78  52  40 VRB3      30.12R
6HR MIN TEMP:  61; 6HR MAX TEMP:  79;

OLATHE - IXD   FAIR      78  52  40 SE6       30.12R
6HR MIN TEMP:  61; 6HR MAX TEMP:  78;

OLATHE - OJC   FAIR      77  55  46 VRB3      30.11R
6HR MIN TEMP:  62; 6HR MAX TEMP:  78;

LAWRENCE       FAIR      78  48  34 CALM      30.11R

$$

MOZ001>008-011>017-020>025-030>033-038>040-044>046-053-054-271900-
...NORTHERN AND CENTRAL MISSOURI...

CITY           SKY/WX    TMP DP  RH WIND       PRES   REMARKS
ST. JOSEPH     FAIR      79  54  41 SE3       30.09F
6HR MIN TEMP:  59; 6HR MAX TEMP:  79;

MOSBY          FAIR      77  52  41 CALM      30.10S
WHITEMAN AFB   FAIR      77  56  48 W5        30.10S
6HR MIN TEMP:  63; 6HR MAX TEMP:  77;

CLINTON        FAIR      79  55  44 CALM      30.12S
SEDALIA        FAIR      78  56  46 W6        30.12S
6HR MIN TEMP:  65; 6HR MAX TEMP:  79;

WARSAW         NOT AVBL
CHILLICOTHE    NOT AVBL
KIRKSVILLE     FAIR      76  60  57 W12       30.09S
6HR MIN TEMP:  61; 6HR MAX TEMP:  76;


$$

MOZ041-047>049-056>058-063>065-088>090-097-271900-
...EASTERN AND SOUTHERN MISSOURI...

CITY           SKY/WX    TMP DP  RH WIND       PRES   REMARKS
ST. LOUIS INTL FAIR      81  63  54 W10       30.06F
6HR MIN TEMP:  70; 6HR MAX TEMP:  82; 6HR PCP: TRACE;

SPIRIT OF STL  FAIR      80  64  58 W10G17    30.05S
COLUMBIA       FAIR      78  58  49 W10       30.10R
JEFFERSON CITY FAIR      79  54  41 NW8       30.08S
ROLLA          FAIR      77  65  66 NW10      30.09S
SPRINGFIELD    PTSUNNY   78  63  59 N3        30.11F
BRANSON        MOSUNNY   79  63  57 CALM      30.13F
JOPLIN         PTSUNNY   79  66  64 NW3       30.11F
WEST PLAINS    FAIR      79  64  60 CALM      30.14S

$$

IAZ060-094-KSZ022-034>040-054-083-096-NEZ052-066-093-271900-
...KANSAS...SOUTHEAST NEBRASKA AND IOWA...

CITY           SKY/WX    TMP DP  RH WIND       PRES   REMARKS
TOPEKA         FAIR      79  53  40 VRB7      30.10S
6HR MIN TEMP:  58; 6HR MAX TEMP:  80;

MANHATTAN      FAIR      79  52  38 E9        30.09S
EMPORIA        FAIR      77  58  51 SE10      30.11S
CHANUTE        FAIR      80  62  54 VRB3      30.11S
WICHITA        PTSUNNY   78  63  59 SE12      30.10R
OMAHA          FAIR      80  53  39 S7        30.06S
LINCOLN        FAIR      82  48  30 CALM      30.09R
FALLS CITY     FAIR      79  49  34 CALM      30.09S
LAMONI         FAIR      80  54  40 CALM      30.09R
DES MOINES     FAIR      79  54  41 W6        30.05S

$$



USA.gov is the U.S. government's official web portal to all federal, state and local government web resources and services.